Location: Peebles
(55.6412°N, 3.1714°W)
Time: 09:27:50
(UTC+01:00)

SPOT 5 - Pass Details

Date: 26 September 2021
Orbit: 622 x 815 km, 98.2° (Epoch: 20 October)

Event Time Altitude Azimuth Distance (km) Brightness Sun altitude
Exits shadow 23:11:17 49° 286° (WNW) 1,040 3.8 -31.4°
Drops below altitude 10° 23:15:45 10° 337° (NNW) 2,365 6.4 -31.7°
Sets 23:18:08 0° 342° (NNW) 3,275 7.3 -31.9°
